Time,TemperatureF,DewpointF,PressureIn,WindDirection,WindDirectionDegrees,WindSpeedMPH,WindSpeedGustMPH,Humidity,HourlyPrecipIn,Conditions,Clouds,dailyrainin,SoftwareType,DateUTC
2013-04-05 00:00:00,40.4,26.8,29.91,WSW,257,0.0,0.0,58,0.00,,,0.00,VWS V14.01,2013-04-05 04:00:00,
2013-04-05 00:05:00,40.5,26.9,29.91,WSW,257,0.0,0.0,58,0.00,,,0.00,VWS V14.01,2013-04-05 04:05:00,
2013-04-05 00:10:00,40.5,28.5,29.91,WSW,257,0.0,0.0,62,0.00,,,0.00,VWS V14.01,2013-04-05 04:10:00,
2013-04-05 00:15:00,40.6,29.8,29.90,WSW,257,0.0,0.0,65,0.00,,,0.00,VWS V14.01,2013-04-05 04:15:00,
2013-04-05 00:20:00,40.5,29.7,29.90,WSW,256,0.0,0.0,65,0.00,,,0.00,VWS V14.01,2013-04-05 04:20:00,
2013-04-05 00:25:00,40.5,29.7,29.90,WSW,257,0.0,0.0,65,0.00,,,0.00,VWS V14.01,2013-04-05 04:25:00,
2013-04-05 00:30:00,40.5,29.7,29.89,WSW,257,0.0,0.0,65,0.00,,,0.00,VWS V14.01,2013-04-05 04:30:00,
2013-04-05 00:35:00,40.6,29.8,29.89,WSW,257,0.0,0.0,65,0.00,,,0.00,VWS V14.01,2013-04-05 04:35:00,
2013-04-05 00:40:00,40.7,30.6,29.89,WSW,256,0.0,0.0,67,0.00,,,0.00,VWS V14.01,2013-04-05 04:40:00,
2013-04-05 00:45:00,40.7,31.0,29.89,WSW,257,0.0,0.0,68,0.00,,,0.00,VWS V14.01,2013-04-05 04:45:00,
2013-04-05 00:50:00,40.6,30.9,29.89,WSW,257,0.0,0.0,68,0.00,,,0.00,VWS V14.01,2013-04-05 04:50:00,
2013-04-05 00:55:00,40.6,30.5,29.89,WSW,257,0.0,0.0,67,0.00,,,0.00,VWS V14.01,2013-04-05 04:55:00,
2013-04-05 01:00:00,40.7,30.2,29.89,WSW,257,0.0,0.0,66,0.00,,,0.00,VWS V14.01,2013-04-05 05:00:00,
2013-04-05 01:05:00,40.7,29.9,29.89,WSW,256,0.0,0.0,65,0.00,,,0.00,VWS V14.01,2013-04-05 05:05:00,
2013-04-05 01:10:00,40.9,30.1,29.89,WSW,257,0.0,0.0,65,0.00,,,0.00,VWS V14.01,2013-04-05 05:10:00,
2013-04-05 01:15:00,41.0,30.1,29.89,WSW,257,0.0,0.0,65,0.00,,,0.00,VWS V14.01,2013-04-05 05:15:00,
2013-04-05 01:20:00,41.1,30.2,29.89,WSW,257,0.0,0.0,65,0.00,,,0.00,VWS V14.01,2013-04-05 05:20:00,
2013-04-05 01:25:00,41.1,29.5,29.89,WSW,257,0.0,0.0,63,0.00,,,0.00,VWS V14.01,2013-04-05 05:25:00,
2013-04-05 01:30:00,41.1,30.2,29.89,WSW,256,0.0,0.0,65,0.00,,,0.00,VWS V14.01,2013-04-05 05:30:00,
2013-04-05 01:35:00,41.2,30.3,29.89,WSW,257,0.0,0.0,65,0.00,,,0.00,VWS V14.01,2013-04-05 05:35:00,
2013-04-05 01:40:00,41.2,29.2,29.89,WSW,256,0.0,0.0,62,0.00,,,0.00,VWS V14.01,2013-04-05 05:40:00,
2013-04-05 01:45:00,41.1,28.3,29.89,WSW,257,0.0,0.0,60,0.00,,,0.00,VWS V14.01,2013-04-05 05:45:00,
2013-04-05 01:50:00,41.2,28.8,29.89,WSW,257,0.0,0.0,61,0.00,,,0.00,VWS V14.01,2013-04-05 05:50:00,
2013-04-05 01:55:00,41.3,30.1,29.88,WSW,256,0.0,0.0,64,0.00,,,0.00,VWS V14.01,2013-04-05 05:55:00,
2013-04-05 02:00:00,41.2,30.7,29.89,WSW,257,0.0,0.0,66,0.00,,,0.00,VWS V14.01,2013-04-05 06:00:00,
2013-04-05 02:05:00,41.1,29.5,29.88,WSW,257,0.0,0.0,63,0.00,,,0.00,VWS V14.01,2013-04-05 06:05:00,
2013-04-05 02:10:00,41.0,29.8,29.89,WSW,257,0.0,0.0,64,0.00,,,0.00,VWS V14.01,2013-04-05 06:10:00,
2013-04-05 02:15:00,40.9,27.7,29.88,WSW,257,0.0,0.0,59,0.00,,,0.00,VWS V14.01,2013-04-05 06:15:00,
2013-04-05 02:20:00,40.8,27.6,29.89,WSW,256,0.0,0.0,59,0.00,,,0.00,VWS V14.01,2013-04-05 06:20:00,
2013-04-05 02:25:00,40.7,27.5,29.89,WSW,257,0.0,0.0,59,0.00,,,0.00,VWS V14.01,2013-04-05 06:25:00,
2013-04-05 02:30:00,40.7,27.9,29.89,WSW,257,0.0,0.0,60,0.00,,,0.00,VWS V14.01,2013-04-05 06:30:00,
2013-04-05 02:35:00,40.6,27.8,29.89,WSW,257,0.0,0.0,60,0.00,,,0.00,VWS V14.01,2013-04-05 06:35:00,
2013-04-05 02:40:00,40.4,27.2,29.89,WSW,256,0.0,0.0,59,0.00,,,0.00,VWS V14.01,2013-04-05 06:40:00,
2013-04-05 02:45:00,40.1,26.5,29.89,WSW,256,0.0,0.0,58,0.00,,,0.00,VWS V14.01,2013-04-05 06:45:00,
2013-04-05 02:50:00,39.8,26.7,29.89,WSW,257,0.0,0.0,59,0.00,,,0.00,VWS V14.01,2013-04-05 06:50:00,
2013-04-05 02:55:00,39.5,27.2,29.89,WSW,257,0.0,0.0,61,0.00,,,0.00,VWS V14.01,2013-04-05 06:55:00,
2013-04-05 03:00:00,39.2,26.9,29.89,WSW,257,0.0,0.0,61,0.00,,,0.00,VWS V14.01,2013-04-05 07:00:00,
2013-04-05 03:05:00,38.8,26.9,29.89,WSW,257,0.0,0.0,62,0.00,,,0.00,VWS V14.01,2013-04-05 07:05:00,
2013-04-05 03:10:00,38.4,26.5,29.89,WSW,256,0.0,0.0,62,0.00,,,0.00,VWS V14.01,2013-04-05 07:10:00,
2013-04-05 03:15:00,38.2,27.1,29.89,WSW,257,0.0,0.0,64,0.00,,,0.00,VWS V14.01,2013-04-05 07:15:00,
2013-04-05 03:20:00,38.0,27.3,29.89,WSW,257,0.0,0.0,65,0.00,,,0.00,VWS V14.01,2013-04-05 07:20:00,
2013-04-05 03:25:00,37.6,26.9,29.89,WSW,256,0.0,0.0,65,0.00,,,0.00,VWS V14.01,2013-04-05 07:25:00,
2013-04-05 03:30:00,37.2,26.2,29.89,WSW,256,0.0,0.0,64,0.00,,,0.00,VWS V14.01,2013-04-05 07:30:00,
2013-04-05 03:35:00,36.9,26.2,29.90,WSW,257,0.0,0.0,65,0.00,,,0.00,VWS V14.01,2013-04-05 07:35:00,
2013-04-05 03:40:00,36.6,26.0,29.89,WSW,256,0.0,0.0,65,0.00,,,0.00,VWS V14.01,2013-04-05 07:40:00,
2013-04-05 03:45:00,36.3,25.3,29.90,WSW,257,0.0,0.0,64,0.00,,,0.00,VWS V14.01,2013-04-05 07:45:00,
2013-04-05 03:50:00,36.1,25.1,29.90,WSW,257,0.0,0.0,64,0.00,,,0.00,VWS V14.01,2013-04-05 07:50:00,
2013-04-05 03:55:00,35.9,25.3,29.90,WSW,256,0.0,0.0,65,0.00,,,0.00,VWS V14.01,2013-04-05 07:55:00,
2013-04-05 04:00:00,35.7,25.8,29.90,WSW,256,0.0,0.0,67,0.00,,,0.00,VWS V14.01,2013-04-05 08:00:00,
2013-04-05 04:05:00,35.5,25.6,29.90,WSW,257,0.0,0.0,67,0.00,,,0.00,VWS V14.01,2013-04-05 08:05:00,
2013-04-05 04:10:00,35.3,26.2,29.90,WSW,256,0.0,0.0,69,0.00,,,0.00,VWS V14.01,2013-04-05 08:10:00,
2013-04-05 04:15:00,35.1,26.3,29.90,WSW,257,0.0,0.0,70,0.00,,,0.00,VWS V14.01,2013-04-05 08:15:00,
2013-04-05 04:20:00,34.8,26.4,29.91,WSW,257,0.0,0.0,71,0.00,,,0.00,VWS V14.01,2013-04-05 08:20:00,
2013-04-05 04:25:00,34.5,26.4,29.91,WSW,257,0.0,0.0,72,0.00,,,0.00,VWS V14.01,2013-04-05 08:25:00,
2013-04-05 04:30:00,34.4,26.7,29.91,WSW,256,0.0,0.0,73,0.00,,,0.00,VWS V14.01,2013-04-05 08:30:00,
2013-04-05 04:35:00,34.3,26.9,29.91,WSW,256,0.0,0.0,74,0.00,,,0.00,VWS V14.01,2013-04-05 08:35:00,
2013-04-05 04:40:00,33.9,26.5,29.92,WSW,257,0.0,0.0,74,0.00,,,0.00,VWS V14.01,2013-04-05 08:40:00,
2013-04-05 04:45:00,33.7,26.6,29.92,West,265,1.0,4.0,75,0.00,,,0.00,VWS V14.01,2013-04-05 08:45:00,
2013-04-05 04:50:00,33.8,26.4,29.92,West,267,0.0,4.0,74,0.00,,,0.00,VWS V14.01,2013-04-05 08:50:00,
2013-04-05 04:55:00,34.4,26.0,29.92,West,268,0.0,4.0,71,0.00,,,0.00,VWS V14.01,2013-04-05 08:55:00,
2013-04-05 05:00:00,35.2,26.4,29.93,WNW,295,0.0,5.0,70,0.00,,,0.00,VWS V14.01,2013-04-05 09:00:00,
2013-04-05 05:05:00,35.8,26.6,29.93,WNW,295,0.0,4.0,69,0.00,,,0.00,VWS V14.01,2013-04-05 09:05:00,
2013-04-05 05:10:00,36.3,27.1,29.94,WNW,295,0.0,4.0,69,0.00,,,0.00,VWS V14.01,2013-04-05 09:10:00,
2013-04-05 05:15:00,36.9,27.3,29.94,WNW,301,0.0,4.0,68,0.00,,,0.00,VWS V14.01,2013-04-05 09:15:00,
2013-04-05 05:20:00,37.4,27.8,29.94,WNW,301,0.0,4.0,68,0.00,,,0.00,VWS V14.01,2013-04-05 09:20:00,
2013-04-05 05:25:00,37.6,27.6,29.94,NW,304,0.0,5.0,67,0.00,,,0.00,VWS V14.01,2013-04-05 09:25:00,
2013-04-05 05:30:00,37.6,28.0,29.94,WNW,303,0.0,5.0,68,0.00,,,0.00,VWS V14.01,2013-04-05 09:30:00,
2013-04-05 05:35:00,37.6,28.0,29.94,NW,305,0.0,5.0,68,0.00,,,0.00,VWS V14.01,2013-04-05 09:35:00,
2013-04-05 05:40:00,37.5,27.9,29.94,NW,304,0.0,5.0,68,0.00,,,0.00,VWS V14.01,2013-04-05 09:40:00,
2013-04-05 05:45:00,37.3,28.1,29.95,NW,304,0.0,5.0,69,0.00,,,0.00,VWS V14.01,2013-04-05 09:45:00,
2013-04-05 05:50:00,37.0,28.1,29.95,NW,305,0.0,5.0,70,0.00,,,0.00,VWS V14.01,2013-04-05 09:50:00,
2013-04-05 05:55:00,36.7,28.5,29.96,NW,313,0.0,5.0,72,0.00,,,0.00,VWS V14.01,2013-04-05 09:55:00,
2013-04-05 06:00:00,36.5,28.7,29.96,NNE,15,0.0,0.0,73,0.00,,,0.00,VWS V14.01,2013-04-05 10:00:00,
2013-04-05 06:05:00,36.4,29.2,29.96,NNE,15,0.0,2.0,75,0.00,,,0.00,VWS V14.01,2013-04-05 10:05:00,
2013-04-05 06:10:00,36.3,29.8,29.97,North,10,0.0,5.0,77,0.00,,,0.00,VWS V14.01,2013-04-05 10:10:00,
2013-04-05 06:15:00,36.4,30.5,29.97,NNE,15,0.0,5.0,79,0.00,,,0.00,VWS V14.01,2013-04-05 10:15:00,
2013-04-05 06:20:00,36.4,30.5,29.97,NNE,15,0.0,5.0,79,0.00,,,0.00,VWS V14.01,2013-04-05 10:20:00,
2013-04-05 06:25:00,36.2,30.3,29.98,NNE,14,0.0,5.0,79,0.00,,,0.00,VWS V14.01,2013-04-05 10:25:00,
2013-04-05 06:30:00,35.9,30.3,29.98,NNE,14,1.0,5.0,80,0.00,,,0.00,VWS V14.01,2013-04-05 10:30:00,
2013-04-05 06:35:00,35.6,30.4,29.98,NNE,15,0.0,6.0,81,0.00,,,0.00,VWS V14.01,2013-04-05 10:35:00,
2013-04-05 06:40:00,35.4,30.5,29.98,NNE,14,0.0,6.0,82,0.00,,,0.00,VWS V14.01,2013-04-05 10:40:00,
2013-04-05 06:45:00,35.3,30.7,29.99,NNE,14,0.0,6.0,83,0.00,,,0.00,VWS V14.01,2013-04-05 10:45:00,
2013-04-05 06:50:00,35.1,30.5,29.99,NW,315,0.0,6.0,83,0.00,,,0.00,VWS V14.01,2013-04-05 10:50:00,
2013-04-05 06:55:00,34.9,30.6,29.99,NNW,331,0.0,6.0,84,0.00,,,0.00,VWS V14.01,2013-04-05 10:55:00,
2013-04-05 07:00:00,34.8,30.5,30.00,NNE,17,1.0,1.0,84,0.00,,,0.00,VWS V14.01,2013-04-05 11:00:00,
2013-04-05 07:05:00,34.7,30.7,30.00,NNW,337,0.0,7.0,85,0.00,,,0.00,VWS V14.01,2013-04-05 11:05:00,
2013-04-05 07:10:00,34.7,31.0,30.01,NW,324,3.0,7.0,86,0.00,,,0.00,VWS V14.01,2013-04-05 11:10:00,
2013-04-05 07:15:00,34.7,31.0,30.01,NNE,18,0.0,7.0,86,0.00,,,0.00,VWS V14.01,2013-04-05 11:15:00,
2013-04-05 07:20:00,34.6,31.1,30.02,NNE,17,0.0,7.0,87,0.00,,,0.00,VWS V14.01,2013-04-05 11:20:00,
2013-04-05 07:25:00,34.4,30.9,30.02,North,360,0.0,7.0,87,0.00,,,0.00,VWS V14.01,2013-04-05 11:25:00,
2013-04-05 07:30:00,34.4,30.9,30.02,North,360,0.0,7.0,87,0.00,,,0.00,VWS V14.01,2013-04-05 11:30:00,
2013-04-05 07:35:00,34.4,30.9,30.03,North,5,0.0,7.0,87,0.00,,,0.00,VWS V14.01,2013-04-05 11:35:00,
2013-04-05 07:40:00,34.4,30.9,30.03,North,5,0.0,7.0,87,0.00,,,0.00,VWS V14.01,2013-04-05 11:40:00,
2013-04-05 07:45:00,34.4,31.2,30.04,North,9,0.0,7.0,88,0.00,,,0.00,VWS V14.01,2013-04-05 11:45:00,
2013-04-05 07:50:00,34.4,31.2,30.04,NNE,13,0.0,7.0,88,0.00,,,0.00,VWS V14.01,2013-04-05 11:50:00,
2013-04-05 07:55:00,34.4,31.2,30.04,NNE,13,0.0,7.0,88,0.00,,,0.00,VWS V14.01,2013-04-05 11:55:00,
2013-04-05 08:00:00,34.4,31.2,30.05,NNE,13,0.0,0.0,88,0.00,,,0.00,VWS V14.01,2013-04-05 12:00:00,
2013-04-05 08:05:00,34.8,31.3,30.05,NNE,13,0.0,5.0,87,0.00,,,0.00,VWS V14.01,2013-04-05 12:05:00,
2013-04-05 08:10:00,35.2,30.9,30.05,NE,42,0.0,8.0,84,0.00,,,0.00,VWS V14.01,2013-04-05 12:10:00,
2013-04-05 08:15:00,35.8,30.9,30.06,NNE,24,6.0,8.0,82,0.00,,,0.00,VWS V14.01,2013-04-05 12:15:00,
2013-04-05 08:20:00,36.3,31.0,30.06,NNE,32,2.0,8.0,81,0.00,,,0.00,VWS V14.01,2013-04-05 12:20:00,
2013-04-05 08:25:00,36.6,31.0,30.06,NW,310,0.0,8.0,80,0.00,,,0.00,VWS V14.01,2013-04-05 12:25:00,
2013-04-05 08:30:00,37.0,31.7,30.06,NNW,333,1.0,8.0,81,0.00,,,0.00,VWS V14.01,2013-04-05 12:30:00,
2013-04-05 08:35:00,37.4,32.1,30.06,NNW,333,2.0,8.0,81,0.00,,,0.00,VWS V14.01,2013-04-05 12:35:00,
2013-04-05 08:40:00,37.5,31.6,30.07,NNE,13,2.0,8.0,79,0.00,,,0.00,VWS V14.01,2013-04-05 12:40:00,
2013-04-05 08:45:00,37.5,31.3,30.07,NNW,348,0.0,10.0,78,0.00,,,0.00,VWS V14.01,2013-04-05 12:45:00,
2013-04-05 08:50:00,37.5,30.6,30.07,NNE,25,0.0,10.0,76,0.00,,,0.00,VWS V14.01,2013-04-05 12:50:00,
2013-04-05 08:55:00,37.9,31.0,30.07,NNE,28,3.0,10.0,76,0.00,,,0.00,VWS V14.01,2013-04-05 12:55:00,
2013-04-05 09:00:00,38.3,31.1,30.08,NNE,16,7.0,7.0,75,0.00,,,0.00,VWS V14.01,2013-04-05 13:00:00,
2013-04-05 09:05:00,38.1,30.9,30.08,NNE,26,2.0,7.0,75,0.00,,,0.00,VWS V14.01,2013-04-05 13:05:00,
2013-04-05 09:10:00,38.1,30.2,30.08,West,279,6.0,8.0,73,0.00,,,0.00,VWS V14.01,2013-04-05 13:10:00,
2013-04-05 09:15:00,38.2,30.0,30.08,NNW,348,1.0,8.0,72,0.00,,,0.00,VWS V14.01,2013-04-05 13:15:00,
2013-04-05 09:20:00,38.4,29.1,30.08,NNE,17,4.0,9.0,69,0.00,,,0.00,VWS V14.01,2013-04-05 13:20:00,
2013-04-05 09:25:00,38.7,28.7,30.08,NW,315,1.0,10.0,67,0.00,,,0.00,VWS V14.01,2013-04-05 13:25:00,
2013-04-05 09:30:00,39.1,28.7,30.08,NNW,342,1.0,10.0,66,0.00,,,0.00,VWS V14.01,2013-04-05 13:30:00,
2013-04-05 09:35:00,39.5,27.6,30.08,North,11,2.0,13.0,62,0.00,,,0.00,VWS V14.01,2013-04-05 13:35:00,
2013-04-05 09:40:00,39.7,27.4,30.07,NNE,17,3.0,13.0,61,0.00,,,0.00,VWS V14.01,2013-04-05 13:40:00,
2013-04-05 09:45:00,39.7,27.4,30.08,NNE,14,0.0,13.0,61,0.00,,,0.00,VWS V14.01,2013-04-05 13:45:00,
2013-04-05 09:50:00,40.0,27.2,30.07,NNE,19,2.0,13.0,60,0.00,,,0.00,VWS V14.01,2013-04-05 13:50:00,
2013-04-05 09:55:00,40.4,26.4,30.08,NNW,348,5.0,13.0,57,0.00,,,0.00,VWS V14.01,2013-04-05 13:55:00,
2013-04-05 10:00:00,40.6,27.0,30.08,North,355,0.0,4.0,58,0.00,,,0.00,VWS V14.01,2013-04-05 14:00:00,
2013-04-05 10:05:00,40.7,26.2,30.08,NE,39,0.0,12.0,56,0.00,,,0.00,VWS V14.01,2013-04-05 14:05:00,
2013-04-05 10:10:00,41.1,25.7,30.08,NNE,21,2.0,12.0,54,0.00,,,0.00,VWS V14.01,2013-04-05 14:10:00,
2013-04-05 10:15:00,41.9,26.5,30.08,NNE,21,1.0,12.0,54,0.00,,,0.00,VWS V14.01,2013-04-05 14:15:00,
2013-04-05 10:20:00,42.1,25.8,30.08,NNE,32,13.0,13.0,52,0.00,,,0.00,VWS V14.01,2013-04-05 14:20:00,
2013-04-05 10:25:00,41.9,25.1,30.08,North,350,0.0,13.0,51,0.00,,,0.00,VWS V14.01,2013-04-05 14:25:00,
2013-04-05 10:30:00,42.0,24.7,30.08,NW,324,6.0,13.0,50,0.00,,,0.00,VWS V14.01,2013-04-05 14:30:00,
2013-04-05 10:35:00,41.6,23.9,30.08,NE,42,4.0,13.0,49,0.00,,,0.00,VWS V14.01,2013-04-05 14:35:00,
2013-04-05 10:40:00,41.9,23.7,30.08,NE,51,5.0,13.0,48,0.00,,,0.00,VWS V14.01,2013-04-05 14:40:00,
2013-04-05 10:45:00,42.3,23.0,30.08,NNE,25,5.0,13.0,46,0.00,,,0.00,VWS V14.01,2013-04-05 14:45:00,
2013-04-05 10:50:00,42.5,24.2,30.08,NNW,335,1.0,13.0,48,0.00,,,0.00,VWS V14.01,2013-04-05 14:50:00,
2013-04-05 10:55:00,42.5,23.7,30.08,North,355,3.0,13.0,47,0.00,,,0.00,VWS V14.01,2013-04-05 14:55:00,
2013-04-05 11:00:00,42.4,23.1,30.09,NE,44,5.0,6.0,46,0.00,,,0.00,VWS V14.01,2013-04-05 15:00:00,
2013-04-05 11:05:00,42.4,23.6,30.09,West,275,1.0,10.0,47,0.00,,,0.00,VWS V14.01,2013-04-05 15:05:00,
2013-04-05 11:10:00,42.7,24.4,30.09,NNW,348,0.0,11.0,48,0.00,,,0.00,VWS V14.01,2013-04-05 15:10:00,
2013-04-05 11:15:00,43.3,25.9,30.09,WNW,294,0.0,11.0,50,0.00,,,0.00,VWS V14.01,2013-04-05 15:15:00,
2013-04-05 11:20:00,44.2,26.3,30.09,NW,315,4.0,11.0,49,0.00,,,0.00,VWS V14.01,2013-04-05 15:20:00,
2013-04-05 11:25:00,44.1,25.7,30.08,WNW,282,4.0,11.0,48,0.00,,,0.00,VWS V14.01,2013-04-05 15:25:00,
2013-04-05 11:31:00,44.1,25.2,30.08,NW,319,4.0,11.0,47,0.00,,,0.00,VWS V14.01,2013-04-05 15:31:00,
2013-04-05 11:35:00,44.2,25.8,30.09,West,264,3.0,12.0,48,0.00,,,0.00,VWS V14.01,2013-04-05 15:35:00,
2013-04-05 11:40:00,44.6,26.1,30.09,NNW,331,7.0,12.0,48,0.00,,,0.00,VWS V14.01,2013-04-05 15:40:00,
2013-04-05 11:45:00,44.3,25.4,30.09,West,272,0.0,12.0,47,0.00,,,0.00,VWS V14.01,2013-04-05 15:45:00,
2013-04-05 11:51:00,44.3,25.9,30.09,NNW,327,7.0,12.0,48,0.00,,,0.00,VWS V14.01,2013-04-05 15:51:00,
2013-04-05 11:56:00,44.8,25.3,30.09,North,355,6.0,12.0,46,0.00,,,0.00,VWS V14.01,2013-04-05 15:56:00,
2013-04-05 12:00:00,44.9,24.9,30.09,North,360,4.0,12.0,45,0.00,,,0.00,VWS V14.01,2013-04-05 16:00:00,
2013-04-05 12:01:00,44.9,24.3,30.09,NW,317,2.0,5.0,44,0.00,,,0.00,VWS V14.01,2013-04-05 16:01:00,
2013-04-05 12:06:00,45.0,24.4,30.09,West,274,0.0,8.0,44,0.00,,,0.00,VWS V14.01,2013-04-05 16:06:00,
2013-04-05 12:11:00,46.0,24.8,30.08,NW,308,0.0,10.0,43,0.00,,,0.00,VWS V14.01,2013-04-05 16:11:00,
2013-04-05 12:16:00,46.0,24.2,30.09,NW,313,9.0,13.0,42,0.00,,,0.00,VWS V14.01,2013-04-05 16:16:00,
2013-04-05 12:21:00,45.7,24.5,30.09,West,271,2.0,13.0,43,0.00,,,0.00,VWS V14.01,2013-04-05 16:21:00,
2013-04-05 12:26:00,45.9,24.7,30.09,WNW,302,2.0,13.0,43,0.00,,,0.00,VWS V14.01,2013-04-05 16:26:00,
2013-04-05 12:31:00,46.0,24.2,30.08,West,280,6.0,13.0,42,0.00,,,0.00,VWS V14.01,2013-04-05 16:31:00,
2013-04-05 12:36:00,46.0,23.0,30.09,NNW,336,1.0,14.0,40,0.00,,,0.00,VWS V14.01,2013-04-05 16:36:00,
2013-04-05 12:41:00,46.0,22.5,30.09,West,272,2.0,14.0,39,0.00,,,0.00,VWS V14.01,2013-04-05 16:41:00,
2013-04-05 12:47:00,46.7,23.7,30.08,NNE,25,6.0,14.0,40,0.00,,,0.00,VWS V14.01,2013-04-05 16:47:00,
2013-04-05 12:52:00,46.8,23.2,30.08,NW,315,2.0,14.0,39,0.00,,,0.00,VWS V14.01,2013-04-05 16:52:00,
2013-04-05 12:57:00,46.7,23.1,30.08,NNE,28,4.0,14.0,39,0.00,,,0.00,VWS V14.01,2013-04-05 16:57:00,
2013-04-05 13:00:00,46.4,23.4,30.08,WNW,288,12.0,14.0,40,0.00,,,0.00,VWS V14.01,2013-04-05 17:00:00,
2013-04-05 13:02:00,46.3,22.1,30.08,West,277,9.0,14.0,38,0.00,,,0.00,VWS V14.01,2013-04-05 17:02:00,
2013-04-05 13:07:00,46.4,22.8,30.08,NW,305,8.0,14.0,39,0.00,,,0.00,VWS V14.01,2013-04-05 17:07:00,
2013-04-05 13:12:00,46.6,23.0,30.08,WNW,286,5.0,14.0,39,0.00,,,0.00,VWS V14.01,2013-04-05 17:12:00,
2013-04-05 13:17:00,46.3,22.1,30.08,NW,304,4.0,18.0,38,0.00,,,0.00,VWS V14.01,2013-04-05 17:17:00,
2013-04-05 13:22:00,46.5,21.6,30.08,NE,34,5.0,18.0,37,0.00,,,0.00,VWS V14.01,2013-04-05 17:22:00,
2013-04-05 13:27:00,47.1,23.4,30.08,WNW,289,6.0,18.0,39,0.00,,,0.00,VWS V14.01,2013-04-05 17:27:00,
2013-04-05 13:32:00,47.6,22.6,30.08,WNW,296,6.0,18.0,37,0.00,,,0.00,VWS V14.01,2013-04-05 17:32:00,
2013-04-05 13:37:00,47.5,22.5,30.08,WNW,298,4.0,18.0,37,0.00,,,0.00,VWS V14.01,2013-04-05 17:37:00,
2013-04-05 13:42:00,47.6,22.6,30.08,NW,306,6.0,18.0,37,0.00,,,0.00,VWS V14.01,2013-04-05 17:42:00,
2013-04-05 13:47:00,47.9,22.9,30.08,NW,323,2.0,18.0,37,0.00,,,0.00,VWS V14.01,2013-04-05 17:47:00,
2013-04-05 13:52:00,47.6,21.3,30.08,NW,313,6.0,18.0,35,0.00,,,0.00,VWS V14.01,2013-04-05 17:52:00,
2013-04-05 13:57:00,47.3,23.6,30.08,NNE,21,7.0,18.0,39,0.00,,,0.00,VWS V14.01,2013-04-05 17:57:00,
2013-04-05 14:00:00,47.6,23.3,30.07,NNE,18,7.0,18.0,38,0.00,,,0.00,VWS V14.01,2013-04-05 18:00:00,
2013-04-05 14:02:00,47.8,23.4,30.07,WNW,294,0.0,10.0,38,0.00,,,0.00,VWS V14.01,2013-04-05 18:02:00,
2013-04-05 14:07:00,48.1,23.7,30.08,NNW,334,1.0,15.0,38,0.00,,,0.00,VWS V14.01,2013-04-05 18:07:00,
2013-04-05 14:12:00,48.3,23.3,30.08,NW,315,4.0,15.0,37,0.00,,,0.00,VWS V14.01,2013-04-05 18:12:00,
2013-04-05 14:17:00,48.3,23.3,30.08,NNE,24,2.0,15.0,37,0.00,,,0.00,VWS V14.01,2013-04-05 18:17:00,
2013-04-05 14:22:00,48.5,23.4,30.07,West,279,9.0,15.0,37,0.00,,,0.00,VWS V14.01,2013-04-05 18:22:00,
2013-04-05 14:27:00,48.7,23.6,30.07,NNE,25,0.0,15.0,37,0.00,,,0.00,VWS V14.01,2013-04-05 18:27:00,
2013-04-05 14:32:00,48.7,23.6,30.07,NW,306,2.0,15.0,37,0.00,,,0.00,VWS V14.01,2013-04-05 18:32:00,
2013-04-05 14:37:00,47.9,22.2,30.08,NNE,31,1.0,15.0,36,0.00,,,0.00,VWS V14.01,2013-04-05 18:37:00,
2013-04-05 14:42:00,48.2,22.5,30.08,WNW,298,2.0,15.0,36,0.00,,,0.00,VWS V14.01,2013-04-05 18:42:00,
2013-04-05 14:47:00,48.5,23.4,30.08,NW,323,1.0,15.0,37,0.00,,,0.00,VWS V14.01,2013-04-05 18:47:00,
2013-04-05 14:52:00,49.2,24.7,30.07,NW,319,5.0,15.0,38,0.00,,,0.00,VWS V14.01,2013-04-05 18:52:00,
2013-04-05 14:57:00,48.6,24.2,30.07,NE,45,9.0,15.0,38,0.00,,,0.00,VWS V14.01,2013-04-05 18:57:00,
2013-04-05 15:00:00,48.3,23.2,30.07,West,264,8.0,15.0,37,0.00,,,0.00,VWS V14.01,2013-04-05 19:00:00,
2013-04-05 15:02:00,48.1,23.7,30.07,NW,304,4.0,10.0,38,0.00,,,0.00,VWS V14.01,2013-04-05 19:02:00,
2013-04-05 15:07:00,48.4,23.3,30.07,North,9,1.0,11.0,37,0.00,,,0.00,VWS V14.01,2013-04-05 19:07:00,
2013-04-05 15:12:00,49.0,23.2,30.07,NW,319,0.0,11.0,36,0.00,,,0.00,VWS V14.01,2013-04-05 19:12:00,
2013-04-05 15:17:00,49.3,22.8,30.07,NW,305,4.0,11.0,35,0.00,,,0.00,VWS V14.01,2013-04-05 19:17:00,
2013-04-05 15:22:00,48.5,24.1,30.07,NW,306,2.0,15.0,38,0.00,,,0.00,VWS V14.01,2013-04-05 19:22:00,
2013-04-05 15:27:00,48.6,23.5,30.07,WNW,302,6.0,18.0,37,0.00,,,0.00,VWS V14.01,2013-04-05 19:27:00,
2013-04-05 15:32:00,47.8,23.4,30.07,West,273,6.0,18.0,38,0.00,,,0.00,VWS V14.01,2013-04-05 19:32:00,
2013-04-05 15:37:00,48.4,24.6,30.07,NW,313,2.0,18.0,39,0.00,,,0.00,VWS V14.01,2013-04-05 19:37:00,
2013-04-05 15:42:00,49.4,24.2,30.06,NNE,28,6.0,18.0,37,0.00,,,0.00,VWS V14.01,2013-04-05 19:42:00,
2013-04-05 15:47:00,49.7,24.5,30.06,WNW,291,4.0,18.0,37,0.00,,,0.00,VWS V14.01,2013-04-05 19:47:00,
2013-04-05 15:52:00,49.6,24.4,30.06,NW,315,5.0,18.0,37,0.00,,,0.00,VWS V14.01,2013-04-05 19:52:00,
2013-04-05 15:57:00,49.6,23.8,30.06,NNW,342,4.0,18.0,36,0.00,,,0.00,VWS V14.01,2013-04-05 19:57:00,
2013-04-05 16:00:00,49.8,23.9,30.06,WNW,303,4.0,18.0,36,0.00,,,0.00,VWS V14.01,2013-04-05 20:00:00,
2013-04-05 16:02:00,50.0,24.8,30.06,NW,309,7.0,10.0,37,0.00,,,0.00,VWS V14.01,2013-04-05 20:02:00,
2013-04-05 16:07:00,49.8,23.9,30.06,North,350,0.0,10.0,36,0.00,,,0.00,VWS V14.01,2013-04-05 20:07:00,
2013-04-05 16:12:00,49.8,23.9,30.06,NE,47,10.0,10.0,36,0.00,,,0.00,VWS V14.01,2013-04-05 20:12:00,
2013-04-05 16:17:00,49.6,24.4,30.06,NNW,336,2.0,11.0,37,0.00,,,0.00,VWS V14.01,2013-04-05 20:17:00,
2013-04-05 16:22:00,49.2,24.1,30.06,WNW,299,5.0,12.0,37,0.00,,,0.00,VWS V14.01,2013-04-05 20:22:00,
2013-04-05 16:27:00,48.8,23.7,30.06,WSW,250,5.0,12.0,37,0.00,,,0.00,VWS V14.01,2013-04-05 20:27:00,
2013-04-05 16:32:00,48.8,24.3,30.06,NW,310,4.0,12.0,38,0.00,,,0.00,VWS V14.01,2013-04-05 20:32:00,
2013-04-05 16:37:00,48.9,24.4,30.06,NNE,28,4.0,16.0,38,0.00,,,0.00,VWS V14.01,2013-04-05 20:37:00,
2013-04-05 16:42:00,49.0,24.5,30.06,NW,315,6.0,16.0,38,0.00,,,0.00,VWS V14.01,2013-04-05 20:42:00,
2013-04-05 16:47:00,48.7,23.6,30.06,ENE,68,5.0,16.0,37,0.00,,,0.00,VWS V14.01,2013-04-05 20:47:00,
2013-04-05 16:52:00,49.0,23.9,30.06,West,272,4.0,16.0,37,0.00,,,0.00,VWS V14.01,2013-04-05 20:52:00,
2013-04-05 16:57:00,49.4,24.2,30.06,NNW,329,6.0,16.0,37,0.00,,,0.00,VWS V14.01,2013-04-05 20:57:00,
2013-04-05 17:00:00,49.4,24.2,30.06,NNW,338,5.0,16.0,37,0.00,,,0.00,VWS V14.01,2013-04-05 21:00:00,
2013-04-05 17:02:00,49.5,24.3,30.06,NNW,333,0.0,9.0,37,0.00,,,0.00,VWS V14.01,2013-04-05 21:02:00,
2013-04-05 17:07:00,49.3,24.8,30.06,West,265,7.0,11.0,38,0.00,,,0.00,VWS V14.01,2013-04-05 21:07:00,
2013-04-05 17:12:00,48.7,24.2,30.05,NW,312,4.0,12.0,38,0.00,,,0.00,VWS V14.01,2013-04-05 21:12:00,
2013-04-05 17:18:00,48.9,23.8,30.05,WNW,289,1.0,12.0,37,0.00,,,0.00,VWS V14.01,2013-04-05 21:18:00,
2013-04-05 17:23:00,49.6,23.8,30.06,NW,317,0.0,12.0,36,0.00,,,0.00,VWS V14.01,2013-04-05 21:23:00,
2013-04-05 17:28:00,49.3,24.1,30.06,NW,317,3.0,12.0,37,0.00,,,0.00,VWS V14.01,2013-04-05 21:28:00,
2013-04-05 17:33:00,49.1,24.6,30.06,NW,325,4.0,12.0,38,0.00,,,0.00,VWS V14.01,2013-04-05 21:33:00,
2013-04-05 17:38:00,49.1,24.0,30.06,NNE,30,0.0,12.0,37,0.00,,,0.00,VWS V14.01,2013-04-05 21:38:00,
2013-04-05 17:43:00,49.2,24.1,30.06,NW,317,0.0,12.0,37,0.00,,,0.00,VWS V14.01,2013-04-05 21:43:00,
2013-04-05 17:48:00,49.2,24.7,30.07,WNW,295,6.0,12.0,38,0.00,,,0.00,VWS V14.01,2013-04-05 21:48:00,
2013-04-05 17:53:00,49.2,23.4,30.07,NNW,345,10.0,12.0,36,0.00,,,0.00,VWS V14.01,2013-04-05 21:53:00,
2013-04-05 17:58:00,48.6,24.2,30.07,West,276,5.0,12.0,38,0.00,,,0.00,VWS V14.01,2013-04-05 21:58:00,
2013-04-05 18:00:00,48.4,23.3,30.07,West,275,5.0,12.0,37,0.00,,,0.00,VWS V14.01,2013-04-05 22:00:00,
2013-04-05 18:03:00,48.1,23.7,30.07,West,275,1.0,4.0,38,0.00,,,0.00,VWS V14.01,2013-04-05 22:03:00,
2013-04-05 18:08:00,48.0,23.6,30.07,North,355,0.0,8.0,38,0.00,,,0.00,VWS V14.01,2013-04-05 22:08:00,
2013-04-05 18:13:00,48.0,23.6,30.07,North,360,2.0,8.0,38,0.00,,,0.00,VWS V14.01,2013-04-05 22:13:00,
2013-04-05 18:18:00,48.1,24.3,30.07,NNW,341,2.0,8.0,39,0.00,,,0.00,VWS V14.01,2013-04-05 22:18:00,
2013-04-05 18:23:00,48.1,23.7,30.07,WNW,296,2.0,8.0,38,0.00,,,0.00,VWS V14.01,2013-04-05 22:23:00,
2013-04-05 18:28:00,48.3,23.9,30.08,WNW,303,0.0,8.0,38,0.00,,,0.00,VWS V14.01,2013-04-05 22:28:00,
2013-04-05 18:33:00,48.4,23.3,30.08,West,264,0.0,8.0,37,0.00,,,0.00,VWS V14.01,2013-04-05 22:33:00,
2013-04-05 18:38:00,48.5,24.1,30.08,NNW,336,1.0,8.0,38,0.00,,,0.00,VWS V14.01,2013-04-05 22:38:00,
2013-04-05 18:43:00,48.4,23.3,30.08,West,274,3.0,8.0,37,0.00,,,0.00,VWS V14.01,2013-04-05 22:43:00,
2013-04-05 18:48:00,47.9,22.9,30.08,NNW,348,0.0,8.0,37,0.00,,,0.00,VWS V14.01,2013-04-05 22:48:00,
2013-04-05 18:53:00,47.4,23.1,30.08,NE,34,1.0,8.0,38,0.00,,,0.00,VWS V14.01,2013-04-05 22:53:00,
2013-04-05 18:58:00,47.2,22.9,30.08,NNE,33,2.0,8.0,38,0.00,,,0.00,VWS V14.01,2013-04-05 22:58:00,
2013-04-05 19:00:00,47.2,22.9,30.09,WNW,284,7.0,8.0,38,0.00,,,0.00,VWS V14.01,2013-04-05 23:00:00,
2013-04-05 19:03:00,47.0,22.7,30.09,NW,315,0.0,7.0,38,0.00,,,0.00,VWS V14.01,2013-04-05 23:03:00,
2013-04-05 19:08:00,47.0,22.7,30.09,NNW,347,0.0,7.0,38,0.00,,,0.00,VWS V14.01,2013-04-05 23:08:00,
2013-04-05 19:13:00,47.1,22.8,30.09,North,350,0.0,7.0,38,0.00,,,0.00,VWS V14.01,2013-04-05 23:13:00,
2013-04-05 19:18:00,47.4,23.1,30.09,North,355,4.0,7.0,38,0.00,,,0.00,VWS V14.01,2013-04-05 23:18:00,
2013-04-05 19:23:00,47.2,22.9,30.09,North,355,3.0,7.0,38,0.00,,,0.00,VWS V14.01,2013-04-05 23:23:00,
2013-04-05 19:28:00,46.9,22.6,30.10,NW,319,1.0,7.0,38,0.00,,,0.00,VWS V14.01,2013-04-05 23:28:00,
2013-04-05 19:33:00,46.8,22.5,30.10,NW,318,2.0,7.0,38,0.00,,,0.00,VWS V14.01,2013-04-05 23:33:00,
2013-04-05 19:38:00,46.6,23.0,30.10,NW,319,0.0,7.0,39,0.00,,,0.00,VWS V14.01,2013-04-05 23:38:00,
2013-04-05 19:43:00,46.1,23.1,30.10,NW,319,0.0,7.0,40,0.00,,,0.00,VWS V14.01,2013-04-05 23:43:00,
2013-04-05 19:48:00,45.7,22.8,30.10,NW,319,0.0,7.0,40,0.00,,,0.00,VWS V14.01,2013-04-05 23:48:00,
2013-04-05 19:53:00,45.3,23.0,30.11,NW,319,0.0,7.0,41,0.00,,,0.00,VWS V14.01,2013-04-05 23:53:00,
2013-04-05 19:58:00,44.9,22.6,30.11,NW,319,0.0,7.0,41,0.00,,,0.00,VWS V14.01,2013-04-05 23:58:00,
2013-04-05 20:00:00,44.7,22.5,30.11,NW,319,0.0,7.0,41,0.00,,,0.00,VWS V14.01,2013-04-06 00:00:00,
2013-04-05 20:03:00,44.5,22.9,30.11,NW,319,0.0,2.0,42,0.00,,,0.00,VWS V14.01,2013-04-06 00:03:00,
2013-04-05 20:08:00,44.0,22.4,30.11,NW,319,0.0,2.0,42,0.00,,,0.00,VWS V14.01,2013-04-06 00:08:00,
2013-04-05 20:13:00,43.6,22.0,30.11,NW,319,0.0,2.0,42,0.00,,,0.00,VWS V14.01,2013-04-06 00:13:00,
2013-04-05 20:18:00,43.1,22.1,30.11,NW,319,0.0,2.0,43,0.00,,,0.00,VWS V14.01,2013-04-06 00:18:00,
2013-04-05 20:23:00,42.6,22.2,30.11,NW,319,0.0,2.0,44,0.00,,,0.00,VWS V14.01,2013-04-06 00:23:00,
2013-04-05 20:28:00,42.1,21.8,30.12,NW,319,0.0,2.0,44,0.00,,,0.00,VWS V14.01,2013-04-06 00:28:00,
2013-04-05 20:33:00,41.6,21.9,30.12,NW,319,0.0,2.0,45,0.00,,,0.00,VWS V14.01,2013-04-06 00:33:00,
2013-04-05 20:38:00,41.2,21.5,30.12,NW,319,0.0,2.0,45,0.00,,,0.00,VWS V14.01,2013-04-06 00:38:00,
2013-04-05 20:43:00,41.0,21.8,30.12,NW,319,0.0,2.0,46,0.00,,,0.00,VWS V14.01,2013-04-06 00:43:00,
2013-04-05 20:48:00,40.6,22.0,30.12,NW,319,0.0,2.0,47,0.00,,,0.00,VWS V14.01,2013-04-06 00:48:00,
2013-04-05 20:53:00,40.3,22.2,30.12,NW,319,0.0,2.0,48,0.00,,,0.00,VWS V14.01,2013-04-06 00:53:00,
2013-04-05 20:58:00,39.9,22.3,30.13,NW,319,0.0,2.0,49,0.00,,,0.00,VWS V14.01,2013-04-06 00:58:00,
2013-04-05 21:00:00,39.8,22.7,30.12,NW,319,0.0,2.0,50,0.00,,,0.00,VWS V14.01,2013-04-06 01:00:00,
2013-04-05 21:03:00,39.6,22.5,30.12,NW,319,0.0,0.0,50,0.00,,,0.00,VWS V14.01,2013-04-06 01:03:00,
2013-04-05 21:08:00,39.3,22.7,30.12,NW,319,0.0,0.0,51,0.00,,,0.00,VWS V14.01,2013-04-06 01:08:00,
2013-04-05 21:13:00,38.9,22.8,30.13,NW,319,0.0,0.0,52,0.00,,,0.00,VWS V14.01,2013-04-06 01:13:00,
2013-04-05 21:18:00,38.6,22.5,30.13,NW,319,0.0,0.0,52,0.00,,,0.00,VWS V14.01,2013-04-06 01:18:00,
2013-04-05 21:23:00,38.3,22.7,30.14,NW,319,0.0,0.0,53,0.00,,,0.00,VWS V14.01,2013-04-06 01:23:00,
2013-04-05 21:28:00,38.1,22.5,30.13,NW,319,0.0,0.0,53,0.00,,,0.00,VWS V14.01,2013-04-06 01:28:00,
2013-04-05 21:33:00,38.0,22.0,30.13,NW,319,0.0,0.0,52,0.00,,,0.00,VWS V14.01,2013-04-06 01:33:00,
2013-04-05 21:38:00,37.9,22.3,30.13,NW,319,0.0,0.0,53,0.00,,,0.00,VWS V14.01,2013-04-06 01:38:00,
2013-04-05 21:43:00,37.8,22.2,30.14,NW,319,0.0,0.0,53,0.00,,,0.00,VWS V14.01,2013-04-06 01:43:00,
2013-04-05 21:48:00,37.5,21.9,30.14,NW,319,0.0,0.0,53,0.00,,,0.00,VWS V14.01,2013-04-06 01:48:00,
2013-04-05 21:53:00,37.2,22.1,30.14,NW,319,0.0,0.0,54,0.00,,,0.00,VWS V14.01,2013-04-06 01:53:00,
2013-04-05 21:58:00,36.9,21.8,30.14,NW,319,0.0,0.0,54,0.00,,,0.00,VWS V14.01,2013-04-06 01:58:00,
2013-04-05 22:00:00,36.8,22.2,30.14,NW,319,0.0,0.0,55,0.00,,,0.00,VWS V14.01,2013-04-06 02:00:00,
2013-04-05 22:03:00,36.6,22.4,30.14,NW,319,0.0,0.0,56,0.00,,,0.00,VWS V14.01,2013-04-06 02:03:00,
2013-04-05 22:08:00,36.3,22.1,30.15,NW,319,0.0,0.0,56,0.00,,,0.00,VWS V14.01,2013-04-06 02:08:00,
2013-04-05 22:13:00,36.0,23.1,30.15,NW,319,0.0,2.0,59,0.00,,,0.00,VWS V14.01,2013-04-06 02:13:00,
2013-04-05 22:18:00,35.8,24.5,30.15,SE,141,1.0,5.0,63,0.00,,,0.00,VWS V14.01,2013-04-06 02:18:00,
2013-04-05 22:23:00,36.2,24.5,30.15,East,90,0.0,6.0,62,0.00,,,0.00,VWS V14.01,2013-04-06 02:23:00,
2013-04-05 22:28:00,36.7,24.9,30.16,SE,128,0.0,6.0,62,0.00,,,0.00,VWS V14.01,2013-04-06 02:28:00,
2013-04-05 22:33:00,37.0,25.6,30.16,ESE,108,0.0,6.0,63,0.00,,,0.00,VWS V14.01,2013-04-06 02:33:00,
2013-04-05 22:38:00,37.0,26.3,30.16,ESE,109,0.0,6.0,65,0.00,,,0.00,VWS V14.01,2013-04-06 02:38:00,
2013-04-05 22:43:00,37.0,26.7,30.16,East,88,3.0,6.0,66,0.00,,,0.00,VWS V14.01,2013-04-06 02:43:00,
2013-04-05 22:48:00,37.0,27.1,30.16,ESE,102,1.0,7.0,67,0.00,,,0.00,VWS V14.01,2013-04-06 02:48:00,
2013-04-05 22:53:00,36.8,27.2,30.16,East,88,3.0,7.0,68,0.00,,,0.00,VWS V14.01,2013-04-06 02:53:00,
2013-04-05 22:58:00,36.6,27.0,30.16,East,97,1.0,7.0,68,0.00,,,0.00,VWS V14.01,2013-04-06 02:58:00,
2013-04-05 23:00:00,36.5,27.3,30.16,East,96,1.0,7.0,69,0.00,,,0.00,VWS V14.01,2013-04-06 03:00:00,
2013-04-05 23:03:00,36.4,27.2,30.15,East,97,0.0,4.0,69,0.00,,,0.00,VWS V14.01,2013-04-06 03:03:00,
2013-04-05 23:08:00,36.1,27.3,30.15,East,96,4.0,5.0,70,0.00,,,0.00,VWS V14.01,2013-04-06 03:08:00,
2013-04-05 23:13:00,36.0,27.2,30.16,East,97,0.0,5.0,70,0.00,,,0.00,VWS V14.01,2013-04-06 03:13:00,
2013-04-05 23:18:00,35.7,27.2,30.16,East,97,1.0,5.0,71,0.00,,,0.00,VWS V14.01,2013-04-06 03:18:00,
2013-04-05 23:23:00,35.5,27.0,30.16,East,97,3.0,5.0,71,0.00,,,0.00,VWS V14.01,2013-04-06 03:23:00,
2013-04-05 23:28:00,35.3,27.2,30.16,East,97,0.0,5.0,72,0.00,,,0.00,VWS V14.01,2013-04-06 03:28:00,
2013-04-05 23:33:00,35.1,27.0,30.16,East,96,0.0,5.0,72,0.00,,,0.00,VWS V14.01,2013-04-06 03:33:00,
2013-04-05 23:38:00,34.9,26.8,30.16,East,97,0.0,5.0,72,0.00,,,0.00,VWS V14.01,2013-04-06 03:38:00,
2013-04-05 23:43:00,34.6,26.9,30.16,East,97,0.0,5.0,73,0.00,,,0.00,VWS V14.01,2013-04-06 03:43:00,
2013-04-05 23:48:00,34.4,26.7,30.16,East,97,1.0,5.0,73,0.00,,,0.00,VWS V14.01,2013-04-06 03:48:00,
2013-04-05 23:53:00,34.4,27.0,30.16,East,97,1.0,5.0,74,0.00,,,0.00,VWS V14.01,2013-04-06 03:53:00,
2013-04-05 23:58:00,34.3,26.9,30.16,ESE,102,1.0,5.0,74,0.00,,,0.00,VWS V14.01,2013-04-06 03:58:00,